This is the latest recevied weather packets stored in our database for station/object K5RWS. If no packets are shown the sender has not sent any weather packets the latest 10 day(s).
| Time | Temp. | Humidity | Pressure | Rain* | Wind** | Luminosity | Snow |
|---|---|---|---|---|---|---|---|
| 1777775816 | 15.56° C | 38% | 1022.7 hPa | 0 mm | - | 0 W/m² | - |
| 1777775512 | 15.56° C | 38% | 1022.5 hPa | 0 mm | - | 0 W/m² | - |
| 1777775208 | 15.56° C | 38% | 1022.7 hPa | 0 mm | - | 0 W/m² | - |
| 1777774908 | 15.56° C | 38% | 1022.5 hPa | 0 mm | - | 0 W/m² | - |
| 1777774605 | 16.11° C | 37% | 1022.4 hPa | 0 mm | - | 0 W/m² | - |
| 1777774302 | 16.11° C | 38% | 1022.4 hPa | 0 mm | - | 0 W/m² | - |
| 1777773999 | 16.11° C | 37% | 1022.4 hPa | 0 mm | - | 0 W/m² | - |
| 1777773696 | 16.67° C | 36% | 1022.2 hPa | 0 mm | - | 1 W/m² | - |
| 1777773393 | 16.67° C | 37% | 1022.2 hPa | 0 mm | - | 2 W/m² | - |
| 1777773090 | 16.67° C | 36% | 1022.1 hPa | 0 mm | - | 4 W/m² | - |
| 1777772786 | 16.67° C | 37% | 1022.2 hPa | 0 mm | - | 7 W/m² | - |
| 1777772484 | 16.67° C | 36% | 1022.1 hPa | 0 mm | - | 10 W/m² | - |
| 1777772181 | 17.22° C | 35% | 1022.1 hPa | 0 mm | - | 12 W/m² | - |
| 1777771879 | 17.22° C | 36% | 1022.1 hPa | 0 mm | - | 16 W/m² | - |
| 1777771576 | 17.22° C | 35% | 1021.8 hPa | 0 mm | - | 20 W/m² | - |
| 1777771273 | 17.22° C | 35% | 1022 hPa | 0 mm | - | 23 W/m² | - |
| 1777770970 | 17.22° C | 36% | 1021.8 hPa | 0 mm | - | 27 W/m² | - |
| 1777770667 | 17.78° C | 36% | 1022 hPa | 0 mm | - | 30 W/m² | - |
| 1777770363 | 17.78° C | 34% | 1022.1 hPa | 0 mm | - | 34 W/m² | - |
| 1777770060 | 18.33° C | 34% | 1022 hPa | 0 mm | - | 38 W/m² | - |
| 1777769757 | 18.89° C | 30% | 1022.1 hPa | 0 mm | - | 45 W/m² | - |
| 1777769454 | 18.33° C | 31% | 1022 hPa | 0 mm | - | 47 W/m² | - |
| 1777769150 | 18.89° C | 31% | 1022.1 hPa | 0 mm | - | 54 W/m² | - |
| 1777768849 | 18.89° C | 30% | 1021.8 hPa | 0 mm | - | 60 W/m² | - |
| 1777768545 | 18.89° C | 29% | 1022.1 hPa | 0 mm | - | 58 W/m² | - |
* Rain latest hour (hover to see other rain measurements)
** Current wind speed in m/s (hover to see current wind gust speed)